Showing default

PALISADE, 44634

Orbit data source: Space-Track

PALISADE, 44634 is a payload satellite owned by Astro Digital (US) in LEO that was launched on Thu, 17 Oct 2019 UTC via an ELECTRON launch vehicle from the Rocket Lab Launch Complex (RLLC). Payload-class satellites include a variety of spacecraft equipped with specific instruments for various scientific and technological missions. These include communications satellites like Starlink; space stations such as the ISS; scientific satellites like the Hubble; Earth observation satellites from companies like Planet Labs, Umbra, and HawkEye 360; GPS; miniature CubeSats for education and research; and military/defense satellites.

Loading next visibility...
Identifier
44634, 2019-069A
Orbit
LEO
Country
Flag of USUS
Related business
Manufacturer
Astro Digital
Mission
Operational Commercial Imaging
Bus & Motor
CUBESAT 16U, Unknown motor
Mass
~40 kg wet, ~40 kg dry
Launch date (UTC)
2019-10-17 (7 years ago)
Launch vehicle
ELECTRON
Launch site
Rocket Lab Launch Complex (RLLC)
Object type
Payload
Rocket body
Debris
Shape & HBR
Box, Unknown HBR
Radar Cross Section
0.100 m², Medium (>0.1 m² and < 1m²)

Expand to show TLE details & history
Last TLE update: 2 days ago

TLE from 2 days ago
0 PALISADE
1 44634U 19069A   26171.32964698 -.00000435  00000-0 -12546-2 0  9994
2 44634  87.8878 279.1312 0010840  64.0902 296.1342 13.11906655319522
Epoch: 2026-06-20T07:54Z
TLE epoch observation values (Epoch: 2026-06-20T07:54:41.499Z)
Latitude
-0.00003°
Longitude
-108.08754°
Altitude
1,215.063 km
Speed
7.248 km/s
True Right ascension
18h 36m 31s
True Declination
0° 00' 00"
Sunlit
Object was in full shadow at epoch
Visualization orbit readout
Latitude
Unknown
Longitude
Unknown
Altitude
Unknown
Speed
Unknown
Apparent Right ascension
Unknown
Apparent Declination
Unknown
Sunlit
N/A
Visualization observer readout
Local Sidereal Time
21:24:38
Azimuth
Unknown
Elevation
Unknown
Doppler factor
Unknown
Orbital elements
Apogee altitude
1,221.139 km
Perigee altitude
1,204.681 km
Semi-major axis
7,591.047 km
Eccentricity
0.00108
Inclination
87.8878°
RAAN
279.1312°
Arg. of periapsis
64.0902°
True anomaly
296.02262°
Mean anomaly
296.1342°
Eccentric anomaly
296.07841°
Mean motion
3.28164 °/min
Orbital period
109.7 mins
BSTAR
-0.0012546
Loading maneuver chart data...
Computing Atmospheric mass density...
Loading historical data...
Loading historical data...
Loading historical data...
Loading historical data...
Loading historical data...
Loading historical data...
Loading historical data...
Other satellites on launch #69 in the year 2019 (2019-10-17 UTC)

Documentation

Showing up to 5 results
|